Das Wetter in  D-61279 Heinzenberg / Taunus





Wetter Minimum- & Maximum-Werte im Mai 2017

Standort: Heinzenberg / Taunus - Höhe 297 m         8 24' 1" Ost 50 21' 51" Nord
(   3-stündige Aktualisierung    letzte Aktualisierung um 19:04 am 31.05.2017  )


Messgrösse

Minimum

Maximum

Durchschnitt

Temperatur West /
Luftfeuchte West
Anklicken für Monats-Diagramm

-0,4 C

06:13
10.05.2017

35 %

16:35
28.05.2017

33,3 C

16:30
28.05.2017

93 %

11:17
04.05.2017

Temp

14,9 C

Feuchte

70 %

Temperatur Ost /
Luftfeuchte Ost
Anklicken für Monats-Diagramm

-0,1 C

06:28
10.05.2017

--

--
--

33,6 C

16:25
28.05.2017

--

--
--

15,3 C

--

Luftdruck Anklicken für Monats-Diagramm

996,0 hPa

18:44
11.05.2017

1030,4 hPa

01:04
16.05.2017

1015,9 hPa

Taupunkt

-3,6 C

06:13
10.05.2017

20,1 C

11:36
29.05.2017

9,0 C

Windchill
( gefühlte Temperatur )

-2,8 C

07:51
08.05.2017

33,3 C

16:30
28.05.2017

14,2 C

Windgeschwindigkeit /
Windrichtung
Anklicken für Monats-Diagramm

---

47,5 km/h / SO

20:45
28.05.2017

4,9 km/h
NW

Helligkeit /
Sonnenschein
Anklicken für Monats-Diagramm
Anklicken für Monats-Diagramm

Sonnenschein:

221:24 Stunden

Max: 13:41 Std am
10.05.2017

127 klux

12:46
20.05.2017

39 klux

Solarstrahlung Anklicken für Monats-Diagramm

---

869 W/m

12:46
20.05.2017

286 W/m

Regenmenge
    Mai 2017
Anklicken für Monats-Diagramm

Insgesamt 115,1 l/m

in 85:40 Stunden
an 15 Tagen

26,3 l/m

16:06
03.05.2017

Gesamtmenge

115,1 l/m

Regen-Tage
    Mai 2017
Anklicken für Monats-Diagramm

>   0 mm/Tag

>   2 mm/Tag

>   5 mm/Tag

> 10 mm/Tag

> 20 mm/Tag

15 Tage     
8 Tage     
8 Tage     
4 Tage     
3 Tage     

Eisige Tage Mai 2017 / 2016

Tmin ≤ -10C     

0 Tage

/

0 Tage

Eistage Mai 2017 / 2016

Tmax <     0C     

0 Tage

/

0 Tage

Frosttage Mai 2017 / 2016

Tmin ≤     0C     

  1 Tag

/

0 Tage

Kalte Tage Mai 2017 / 2016

Tmax <   10C     

  1 Tag

/

0 Tage

Warme Tage Mai 2017 / 2016

Tmax ≥   20C     

20 Tage

/

19 Tage

Sommertage Mai 2017 / 2016

Tmax ≥   25C     

11 Tage

/

7 Tage

Heisse Tage Mai 2017 / 2016

Tmax ≥   30C     

3 Tage

/

0 Tage


Monatsdiagramm Mai 2017

Die Kurven zeigen den Durchschnittswert des jeweiligen Tages an


Wetter-Monatsübersicht Mai 2017
Datum
  Temperatur
   Luftdruck
   Wind
  Regen
   Luftfeuchte
   Helligkeit

Sonnen-
schein


Temp.

Min.
Temp.

Max.
Temp.


Luftdruck

Min.
Luftdruck

Max.
Luftdruck

-Geschw.
Haupt-Richtg.

Max.
Wind

Menge /
Dauer


Feuchte

Min.
Feuchte

Max.
Feuchte


Helligkeit

Max.
Helligkeit

1.
Mai
8,4 C7,0 C
23:55
12,2 C
00:03
1010,5 hPa1005,5 hPa
03:53
1015,2 hPa
23:55
4,5 km/h
W
27,1 km/h
10:44  
7,3 l/m
11:06 Stunden
74 %49 %
00:03
87 %
22:50
12,1 klux26,9 klux
14:44
10 Min 
2.
Mai
7,3 C5,5 C
23:31
9,3 C
15:40
1014,0 hPa1012,8 hPa
15:40
1016,4 hPa
23:31
1,9 km/h
W-NW
13,1 km/h
15:20  
20,2 l/m
18:51 Stunden
89 %87 %
00:00
90 %
06:35
7,2 klux23,2 klux
15:30
--- 
3.
Mai
7,9 C4,9 C
03:11
11,7 C
11:36
1018,0 hPa1016,4 hPa
00:01
1019,1 hPa
10:01
0,6 km/h
O-SO
13,8 km/h
09:06  
26,3 l/m
10:45 Stunden
89 %81 %
12:41
92 %
08:36
14,0 klux91,9 klux
11:06
25 Min 
4.
Mai
9,5 C7,8 C
04:07
11,8 C
15:17
1015,9 hPa1014,6 hPa
15:17
1018,1 hPa
23:48
0,5 km/h
NO
11,6 km/h
19:47  
1,8 l/m
2:25 Stunden
89 %83 %
17:41
93 %
11:17
10,7 klux36,7 klux
11:17
--- 
5.
Mai
9,8 C6,6 C
23:59
14,6 C
16:48
1018,1 hPa1016,5 hPa
19:48
1019,3 hPa
08:03
0,9 km/h
NW
12,0 km/h
18:53  
---
80 %65 %
16:38
89 %
07:28
20,5 klux52,6 klux
15:03
10 Min 
6.
Mai
12,7 C2,3 C
05:44
22,6 C
17:44
1011,0 hPa1006,1 hPa
17:44
1017,4 hPa
00:49
3,0 km/h
O-SO
20,3 km/h
10:54  
---
69 %44 %
18:49
90 %
08:34
51,4 klux108,0 klux
11:54
10:25 Std 
7.
Mai
12,5 C11,0 C
06:40
14,2 C
17:10
1012,0 hPa1009,2 hPa
00:00
1014,6 hPa
23:51
3,3 km/h
W
20,6 km/h
17:30  
8,2 l/m
13:31 Stunden
84 %71 %
00:00
89 %
19:50
14 klux37 klux
16:45
--- 
8.
Mai
8,7 C6,2 C
09:26
11,4 C
00:01
1017,2 hPa1014,6 hPa
00:01
1020,4 hPa
23:52
10,7 km/h
NW
27,5 km/h
15:16  
---
1:15 Stunden
82 %70 %
16:41
91 %
03:41
13,0 klux51,6 klux
16:06
--- 
9.
Mai
9,2 C2,7 C
06:02
16,7 C
18:02
1017,8 hPa1013,6 hPa
20:57
1020,9 hPa
06:02
3,0 km/h
O-NO
19,0 km/h
10:47  
---
30 Minuten
64 %40 %
17:52
89 %
08:32
54,6 klux116,0 klux
14:22
11:20 Std 
10.
Mai
10,7 C-0,4 C
06:13
22,8 C
17:38
1008,5 hPa1003,3 hPa
19:03
1014,7 hPa
01:42
3,0 km/h
NW
15,7 km/h
16:13  
---
5 Minuten
59 %36 %
17:43
81 %
07:13
55 klux98 klux
13:18
13:41 Std 
11.
Mai
13,3 C2,6 C
06:29
22,1 C
13:18
1000,4 hPa996,0 hPa
18:44
1005,1 hPa
02:19
6,0 km/h
O-SO
27,9 km/h
16:14  
---
15 Minuten
63 %46 %
16:14
81 %
08:04
36,1 klux122,0 klux
13:29
5:21 Std 
12.
Mai
15,1 C11,9 C
06:20
22,4 C
17:45
1001,7 hPa998,7 hPa
00:00
1006,2 hPa
23:51
3,7 km/h
W-SW
29,3 km/h
01:05  
11,6 l/m
7:36 Stunden
76 %54 %
17:50
87 %
07:40
32 klux114 klux
14:55
3:30 Std 
13.
Mai
16,0 C9,2 C
04:41
24,4 C
17:21
1009,7 hPa1006,2 hPa
00:01
1015,2 hPa
23:57
7,5 km/h
W
30,3 km/h
15:01  
---
72 %48 %
17:36
91 %
08:41
51 klux117 klux
13:21
8:45 Std 
14.
Mai
15,2 C11,5 C
23:53
21,3 C
13:42
1019,9 hPa1015,2 hPa
00:02
1025,0 hPa
23:53
2,9 km/h
W-SW
46,2 km/h
19:27  
6,7 l/m
4:01 Stunden
74 %54 %
13:47
86 %
23:08
33 klux117 klux
13:22
4:10 Std 
15.
Mai
14,7 C6,7 C
05:53
23,2 C
16:48
1027,5 hPa1025,0 hPa
00:03
1029,2 hPa
23:59
4,1 km/h
NW
21,7 km/h
14:58  
0,2 l/m
5 Minuten
69 %38 %
17:23
91 %
08:38
55 klux104 klux
12:48
11:50 Std 
16.
Mai
18,2 C8,8 C
05:34
28,3 C
15:29
1027,0 hPa1024,1 hPa
16:54
1030,4 hPa
01:04
3,2 km/h
W-NW
17,5 km/h
14:19  
---
59 %36 %
15:39
83 %
07:59
56 klux99 klux
13:49
12:25 Std 
17.
Mai
20,7 C10,4 C
06:14
29,2 C
15:19
1019,2 hPa1012,3 hPa
21:54
1025,8 hPa
01:49
9,4 km/h
O-SO
31,1 km/h
16:04  
---
56 %36 %
15:24
79 %
07:29
57 klux100 klux
13:49
13:00 Std 
18.
Mai
19,3 C14,2 C
07:15
24,4 C
11:25
1010,7 hPa1008,6 hPa
22:35
1012,7 hPa
13:30
4,8 km/h
W
23,0 km/h
11:35  
1,1 l/m
55 Minuten
68 %57 %
11:35
78 %
13:50
30 klux107 klux
11:20
6:15 Std 
19.
Mai
13,1 C9,5 C
23:31
16,7 C
00:00
1010,9 hPa1007,9 hPa
01:00
1015,9 hPa
23:31
8,2 km/h
W
38,1 km/h
16:00  
25,1 l/m
11:15 Stunden
88 %77 %
00:00
92 %
16:40
8 klux32 klux
10:55
--- 
20.
Mai
11,6 C5,5 C
06:11
18,8 C
17:31
1020,7 hPa1015,9 hPa
00:01
1026,4 hPa
23:52
7,7 km/h
W-SW
30,8 km/h
13:41  
---
76 %49 %
17:51
92 %
07:51
45,2 klux127,0 klux
12:46
9:25 Std 
21.
Mai
13,7 C4,1 C
05:47
23,4 C
15:57
1025,1 hPa1021,8 hPa
18:37
1028,0 hPa
05:52
1,8 km/h
O-SO
20,5 km/h
16:07  
---
65 %39 %
16:02
87 %
08:12
53 klux118 klux
12:37
10:40 Std 
22.
Mai
16,2 C7,1 C
05:23
25,6 C
17:38
1018,6 hPa1015,0 hPa
17:38
1022,3 hPa
03:13
3,9 km/h
O-SO
24,5 km/h
12:08  
---
63 %39 %
15:13
86 %
08:03
52 klux111 klux
13:33
10:30 Std 
23.
Mai
17,6 C10,4 C
05:18
25,3 C
14:23
1016,6 hPa1015,1 hPa
14:23
1020,3 hPa
23:54
12,2 km/h
NW
33,5 km/h
23:49  
---
64 %47 %
14:33
83 %
07:43
50 klux110 klux
14:08
10:35 Std 
24.
Mai
15,3 C10,2 C
06:59
19,4 C
18:54
1021,9 hPa1019,9 hPa
18:59
1023,6 hPa
09:14
8,1 km/h
NW
33,6 km/h
17:54  
---
68 %57 %
00:09
79 %
23:50
25 klux94 klux
10:29
2:25 Std 
25.
Mai
17,4 C10,0 C
06:25
26,3 C
17:20
1021,4 hPa1019,1 hPa
17:20
1023,1 hPa
06:25
3,9 km/h
W-NW
19,6 km/h
14:35  
---
66 %42 %
17:25
87 %
08:10
54,4 klux117,0 klux
15:10
12:25 Std 
26.
Mai
18,9 C8,9 C
06:11
28,6 C
17:41
1020,2 hPa1016,8 hPa
18:06
1022,8 hPa
08:06
3,9 km/h
SO
23,6 km/h
14:41  
---
63 %41 %
17:46
86 %
08:16
63 klux102 klux
10:41
13:40 Std 
27.
Mai
23,6 C17,3 C
23:59
30,6 C
16:15
1017,8 hPa1015,5 hPa
17:15
1019,6 hPa
10:10
11,3 km/h
O-SO
29,5 km/h
15:15  
---
53 %36 %
16:19
68 %
23:59
71 klux100 klux
13:24
12:00 Std 
28.
Mai
22,5 C12,6 C
06:35
33,3 C
16:30
1016,7 hPa1014,2 hPa
16:30
1018,6 hPa
06:35
3,0 km/h
SO
47,5 km/h
20:45  
---
61 %35 %
16:35
82 %
07:35
48 klux112 klux
14:45
9:29 Std 
29.
Mai
24,2 C16,0 C
05:41
33,2 C
15:36
1012,3 hPa1009,0 hPa
17:06
1015,9 hPa
01:26
4,7 km/h
W-SW
25,5 km/h
15:51  
---
60 %37 %
13:31
80 %
07:36
50 klux100 klux
11:51
9:45 Std 
30.
Mai
20,8 C15,6 C
04:37
28,9 C
15:52
1012,7 hPa1010,5 hPa
15:52
1017,1 hPa
23:58
4,3 km/h
W
31,2 km/h
16:37  
6,7 l/m
3:05 Stunden
72 %51 %
16:22
86 %
22:17
40 klux109 klux
14:02
7:14 Std 
31.
Mai
17,8 C11,4 C
06:23
26,0 C
16:48
1019,8 hPa1017,1 hPa
00:03
1021,5 hPa
08:43
4,4 km/h
W
17,0 km/h
17:38  
---
71 %47 %
16:48
88 %
07:18
52 klux111 klux
14:47
11:49 Std 



Mai
2017

Temperatur

  

Luftdruck

  

Wind

  

Regen

  

Luftfeuchte

  

Helligkeit

Sonnen-
schein

Min

Max

Min

Max

Max

Max

Min

Max

Max

Max

14,9 C

-0,4 C

06:13 Uhr
10.05.2017

33,3 C

16:30 Uhr
28.05.2017

1015,9 hPa

996,0 hPa

18:44 Uhr
11.05.2017

1030,4 hPa

01:04 Uhr
16.05.2017

4,9 km/h

NW

47,5 km/h

20:45 Uhr
28.05.2017

26,3 l/m

10:45 Stunden
03.05.2017

70 %

35 %

16:35 Uhr
28.05.2017

93 %

11:17 Uhr
04.05.2017

39 klux

127,0 klux

12:46 Uhr
20.05.2017

13:41 Std

am
10.05.2017

Gesamt

Gesamt

115,1 l/m

15 Tage
85:40 h

221:24 Std


Wetter-Diagramme Mai 2017     Heinzenberg / Taunus   
TemperaturLuftfeuchte
SolarstrahlungLuftdruck
HelligkeitSonnenschein
RegenmengeRegendauer
Wind-GeschwindigkeitWind-Richtung